• In France
  • List of Countries
  • For 7 days
  • Water Temperature
  • Satellite Maps
  • Weather Map
  • Weather Widgets
  • user-avatar
    Login

    Hourly Weather Bogota

    Today, 15 November, Thursday

    Time Temperature Precipitation Wind Pressure Humidity
    00:00 +10°C° 0.1 mm 1 mps 548 mmHg 89%
    01:00 +10°C° 0 mm 1 mps 548 mmHg 89%
    02:00 +9°C° 0 mm 0 mps 548 mmHg 90%
    03:00 +8°C° 0 mm 0 mps 548 mmHg 90%
    04:00 +8°C° 0 mm 0 mps 548 mmHg 90%
    05:00 +9°C° 0 mm 0 mps 548 mmHg 87%
    06:00 +10°C° 0 mm 0 mps 549 mmHg 84%
    07:00 +12°C° 0 mm 1 mps 550 mmHg 79%
    08:00 +14°C° 0 mm 1 mps 551 mmHg 71%
    09:00 +16°C° 0 mm 1 mps 552 mmHg 64%
    10:00 +19°C° 0 mm 1 mps 553 mmHg 56%
    11:00 +19°C° 0 mm 1 mps 553 mmHg 55%
    12:00 +20°C° 0 mm 1 mps 552 mmHg 55%
    13:00 +21°C° 0 mm 1 mps 552 mmHg 54%
    14:00 +20°C° 0.1 mm 1 mps 551 mmHg 60%
    15:00 +18°C° 0.1 mm 1 mps 550 mmHg 65%
    16:00 +16°C° 0.1 mm 1 mps 549 mmHg 71%
    17:00 +15°C° 0.4 mm 1 mps 549 mmHg 77%
    18:00 +13°C° 0.4 mm 1 mps 549 mmHg 84%
    19:00 +11°C° 0.4 mm 0 mps 548 mmHg 90%
    20:00 +11°C° 0.1 mm 0 mps 548 mmHg 90%
    21:00 +10°C° 0.1 mm 0 mps 549 mmHg 90%
    22:00 +11°C° 0.1 mm 1 mps 549 mmHg 90%
    23:00 +10°C° 0.1 mm 0 mps 549 mmHg 90%

    Tomorrow, 16 November, Friday

    Time Temperature Precipitation Wind Pressure Humidity
    00:00 +10°C° 0.1 mm 0 mps 549 mmHg 91%
    01:00 +10°C° 0.1 mm 0 mps 548 mmHg 91%
    02:00 +10°C° 0.2 mm 0 mps 548 mmHg 91%
    03:00 +10°C° 0.2 mm 0 mps 548 mmHg 91%
    04:00 +10°C° 0.2 mm 0 mps 548 mmHg 91%
    05:00 +10°C° 0.1 mm 0 mps 549 mmHg 89%
    06:00 +11°C° 0.1 mm 0 mps 549 mmHg 88%
    07:00 +11°C° 0.1 mm 0 mps 550 mmHg 86%
    08:00 +13°C° 0.1 mm 1 mps 550 mmHg 81%
    09:00 +14°C° 0.1 mm 1 mps 551 mmHg 75%
    10:00 +16°C° 0.1 mm 1 mps 552 mmHg 70%
    11:00 +16°C° 0.1 mm 1 mps 552 mmHg 67%
    12:00 +18°C° 0.1 mm 1 mps 551 mmHg 64%
    13:00 +19°C° 0.1 mm 1 mps 551 mmHg 61%
    14:00 +18°C° 0.2 mm 1 mps 551 mmHg 64%
    15:00 +18°C° 0.2 mm 1 mps 550 mmHg 67%
    16:00 +16°C° 0.2 mm 1 mps 549 mmHg 71%
    17:00 +15°C° 0.4 mm 1 mps 549 mmHg 77%
    18:00 +13°C° 0.4 mm 1 mps 548 mmHg 83%
    19:00 +12°C° 0.4 mm 1 mps 548 mmHg 89%
    20:00 +12°C° 0.2 mm 1 mps 548 mmHg 89%
    21:00 +11°C° 0.2 mm 0 mps 549 mmHg 88%
    22:00 +11°C° 0.2 mm 0 mps 549 mmHg 88%
    23:00 +11°C° 0.3 mm 0 mps 549 mmHg 88%

    Day after tomorrow, 17 November, Saturday

    Time Temperature Precipitation Wind Pressure Humidity
    00:00 +10°C° 0.3 mm 0 mps 549 mmHg 89%
    01:00 +10°C° 0.3 mm 0 mps 548 mmHg 89%
    02:00 +10°C° 0.2 mm 0 mps 548 mmHg 88%
    03:00 +10°C° 0.2 mm 0 mps 548 mmHg 87%
    04:00 +10°C° 0.2 mm 0 mps 548 mmHg 87%
    05:00 +11°C° 0.1 mm 0 mps 549 mmHg 85%
    06:00 +11°C° 0.1 mm 0 mps 549 mmHg 83%
    07:00 +11°C° 0.1 mm 0 mps 550 mmHg 82%
    08:00 +14°C° 0.1 mm 1 mps 551 mmHg 76%
    09:00 +15°C° 0.1 mm 1 mps 552 mmHg 71%
    10:00 +16°C° 0.1 mm 1 mps 553 mmHg 66%
    11:00 +18°C° 0.2 mm 1 mps 552 mmHg 67%
    12:00 +18°C° 0.2 mm 1 mps 552 mmHg 67%
    13:00 +18°C° 0.2 mm 1 mps 551 mmHg 68%
    14:00 +16°C° 0.5 mm 1 mps 550 mmHg 72%
    15:00 +16°C° 0.5 mm 1 mps 549 mmHg 75%
    16:00 +15°C° 0.5 mm 1 mps 549 mmHg 79%
    17:00 +14°C° 0.5 mm 1 mps 548 mmHg 82%
    18:00 +13°C° 0.5 mm 1 mps 548 mmHg 86%
    19:00 +12°C° 0.5 mm 1 mps 548 mmHg 89%
    20:00 +12°C° 0.5 mm 1 mps 549 mmHg 89%
    21:00 +12°C° 0.5 mm 1 mps 549 mmHg 88%
    22:00 +12°C° 0.5 mm 1 mps 550 mmHg 88%
    23:00 +12°C° 0.3 mm 1 mps 549 mmHg 89%

    18 November, Sunday

    Time Temperature Precipitation Wind Pressure Humidity
    00:00 +11°C° 0.3 mm 0 mps 549 mmHg 89%
    01:00 +11°C° 0.3 mm 0 mps 549 mmHg 89%
    02:00 +10°C° 0.3 mm 0 mps 549 mmHg 90%
    03:00 +10°C° 0.3 mm 0 mps 548 mmHg 90%
    04:00 +10°C° 0.3 mm 0 mps 548 mmHg 90%
    05:00 +10°C° 0.3 mm 0 mps 549 mmHg 90%
    06:00 +10°C° 0.3 mm 0 mps 549 mmHg 89%
    07:00 +11°C° 0.3 mm 0 mps 549 mmHg 88%
    08:00 +13°C° 0.1 mm 1 mps 550 mmHg 83%
    09:00 +14°C° 0.1 mm 1 mps 551 mmHg 78%
    10:00 +15°C° 0.1 mm 1 mps 552 mmHg 73%
    11:00 +16°C° 0.3 mm 1 mps 552 mmHg 72%
    12:00 +16°C° 0.3 mm 1 mps 551 mmHg 70%
    13:00 +16°C° 0.3 mm 1 mps 551 mmHg 69%
    14:00 +16°C° 0.4 mm 1 mps 550 mmHg 73%
    15:00 +15°C° 0.4 mm 1 mps 549 mmHg 76%
    16:00 +15°C° 0.4 mm 1 mps 549 mmHg 80%
    17:00 +13°C° 0.5 mm 0 mps 549 mmHg 83%
    18:00 +12°C° 0.5 mm 0 mps 549 mmHg 86%
    19:00 +11°C° 0.5 mm 0 mps 548 mmHg 89%
    20:00 +11°C° 0.5 mm 0 mps 549 mmHg 90%
    21:00 +12°C° 0.5 mm 1 mps 549 mmHg 90%
    22:00 +12°C° 0.5 mm 1 mps 550 mmHg 90%
    23:00 +12°C° 0.6 mm 1 mps 549 mmHg 90%

    19 November, Monday

    Time Temperature Precipitation Wind Pressure Humidity
    00:00 +10°C° 0.6 mm 0 mps 549 mmHg 90%
    01:00 +10°C° 0.6 mm 0 mps 548 mmHg 90%
    02:00 +10°C° 0.4 mm 0 mps 548 mmHg 90%
    03:00 +10°C° 0.4 mm 0 mps 548 mmHg 89%
    04:00 +9°C° 0.4 mm 0 mps 548 mmHg 89%
    05:00 +10°C° 0.1 mm 0 mps 548 mmHg 87%
    06:00 +10°C° 0.1 mm 0 mps 549 mmHg 86%
    07:00 +11°C° 0.1 mm 0 mps 550 mmHg 84%
    08:00 +14°C° 0 mm 1 mps 551 mmHg 76%
    09:00 +15°C° 0 mm 1 mps 552 mmHg 69%
    10:00 +18°C° 0 mm 1 mps 553 mmHg 61%
    11:00 +18°C° 0 mm 1 mps 552 mmHg 60%
    12:00 +19°C° 0 mm 1 mps 551 mmHg 60%
    13:00 +19°C° 0 mm 1 mps 551 mmHg 59%
    14:00 +18°C° 0.2 mm 1 mps 550 mmHg 62%
    15:00 +18°C° 0.2 mm 1 mps 549 mmHg 66%
    16:00 +18°C° 0.2 mm 1 mps 549 mmHg 69%
    17:00 +15°C° 0.4 mm 1 mps 548 mmHg 75%
    18:00 +13°C° 0.4 mm 1 mps 548 mmHg 82%
    19:00 +12°C° 0.4 mm 1 mps 548 mmHg 88%
    20:00 +12°C° 0.4 mm 1 mps 548 mmHg 89%
    21:00 +12°C° 0.4 mm 1 mps 549 mmHg 89%
    22:00 +11°C° 0.4 mm 1 mps 549 mmHg 90%
    23:00 +11°C° 0.3 mm 1 mps 549 mmHg 90%

    20 November, Tuesday

    Time Temperature Precipitation Wind Pressure Humidity
    00:00 +10°C° 0.3 mm 0 mps 548 mmHg 91%
    01:00 +10°C° 0.3 mm 0 mps 548 mmHg 91%
    02:00 +10°C° 0.1 mm 0 mps 548 mmHg 90%
    03:00 +9°C° 0.1 mm 0 mps 547 mmHg 90%
    04:00 +9°C° 0.1 mm 0 mps 547 mmHg 90%
    05:00 +10°C° 0 mm 0 mps 548 mmHg 87%
    06:00 +11°C° 0 mm 0 mps 549 mmHg 85%
    07:00 +11°C° 0 mm 0 mps 550 mmHg 82%
    08:00 +14°C° 0 mm 1 mps 551 mmHg 76%
    09:00 +15°C° 0 mm 1 mps 552 mmHg 69%
    10:00 +18°C° 0 mm 1 mps 553 mmHg 63%
    11:00 +18°C° 0.1 mm 1 mps 552 mmHg 63%
    12:00 +18°C° 0.1 mm 1 mps 551 mmHg 63%
    13:00 +18°C° 0.1 mm 1 mps 551 mmHg 63%
    14:00 +18°C° 0.3 mm 1 mps 550 mmHg 66%
    15:00 +16°C° 0.3 mm 1 mps 549 mmHg 70%
    16:00 +16°C° 0.3 mm 1 mps 549 mmHg 73%
    17:00 +15°C° 0.4 mm 1 mps 549 mmHg 79%
    18:00 +12°C° 0.4 mm 0 mps 548 mmHg 85%
    19:00 +11°C° 0.4 mm 0 mps 548 mmHg 91%
    20:00 +11°C° 0.5 mm 0 mps 549 mmHg 91%
    21:00 +11°C° 0.5 mm 0 mps 549 mmHg 91%
    22:00 +11°C° 0.5 mm 0 mps 550 mmHg 91%
    23:00 +11°C° 0.7 mm 0 mps 549 mmHg 91%
    Show more